�������l�o���
Date,Time,MP-1(��Sv/h),MP-2(��Sv/h),MP-3(��Sv/h),MP-4(��Sv/h),MP-5(��Sv/h),MP-6(��Sv/h),MP-7(��Sv/h),MP-8(��Sv/h),����,����(m/s),���J
2019/06/10,00:00,0.738,1.055,0.738,1.329,0.987,0.431,0.748,0.712,�k,5.3,�L
2019/06/10,00:10,0.736,1.051,0.737,1.325,0.982,0.432,0.748,0.712,�k�k��,5.2,�L
2019/06/10,00:20,0.738,1.051,0.736,1.325,0.980,0.431,0.746,0.708,�k�k��,6.1,�L
2019/06/10,00:30,0.735,1.048,0.734,1.321,0.977,0.431,0.746,0.708,�k�k��,5.8,�L
2019/06/10,00:40,0.733,1.044,0.732,1.320,0.974,0.431,0.745,0.707,�k�k��,6.5,�L
2019/06/10,00:50,0.730,1.039,0.731,1.314,0.970,0.431,0.743,0.707,�k�k��,5.1,�L
2019/06/10,01:00,0.728,1.035,0.729,1.310,0.967,0.431,0.741,0.706,�k�k��,5.6,�L
2019/06/10,01:10,0.726,1.031,0.727,1.305,0.964,0.430,0.741,0.704,�k�k��,6.3,�L
2019/06/10,01:20,0.726,1.031,0.727,1.302,0.963,0.431,0.742,0.704,�k�k��,6.1,�L
2019/06/10,01:30,0.726,1.029,0.726,1.298,0.960,0.430,0.740,0.702,�k�k��,5.9,�L
2019/06/10,01:40,0.726,1.032,0.728,1.297,0.964,0.428,0.739,0.701,�k�k��,5.3,�L
2019/06/10,01:50,0.726,1.032,0.725,1.299,0.962,0.427,0.740,0.702,�k�k��,5.6,�L
2019/06/10,02:00,0.727,1.032,0.724,1.297,0.959,0.428,0.739,0.702,�k�k��,5.8,�L
2019/06/10,02:10,0.724,1.029,0.724,1.297,0.960,0.426,0.739,0.701,�k��,9.4,�L
2019/06/10,02:20,0.721,1.025,0.720,1.294,0.957,0.427,0.737,0.702,�k�k��,6.2,�L
2019/06/10,02:30,0.722,1.027,0.721,1.290,0.957,0.425,0.737,0.700,�k�k��,6.7,�L
2019/06/10,02:40,0.721,1.024,0.720,1.294,0.957,0.426,0.736,0.701,�k�k��,6.7,�L
2019/06/10,02:50,0.720,1.025,0.720,1.293,0.956,0.426,0.734,0.702,�k�k��,6.7,�L
2019/06/10,03:00,0.720,1.025,0.721,1.293,0.953,0.425,0.737,0.700,�k�k��,6.1,�L
2019/06/10,03:10,0.717,1.021,0.719,1.290,0.954,0.424,0.737,0.699,�k�k��,6.2,�L
2019/06/10,03:20,0.719,1.022,0.718,1.289,0.951,0.425,0.737,0.701,�k�k��,5.5,�L
2019/06/10,03:30,0.720,1.021,0.719,1.291,0.953,0.424,0.737,0.699,�k�k��,4.4,�L
2019/06/10,03:40,0.719,1.022,0.718,1.290,0.955,0.421,0.735,0.700,�k�k��,4.2,�L
2019/06/10,03:50,0.720,1.023,0.715,1.288,0.954,0.422,0.734,0.700,�k�k��,5.2,�L
2019/06/10,04:00,0.719,1.023,0.716,1.287,0.951,0.423,0.736,0.700,�k�k��,5.9,�L
2019/06/10,04:10,0.717,1.022,0.715,1.287,0.954,0.423,0.735,0.701,�k�k��,6.7,�L
2019/06/10,04:20,0.719,1.018,0.718,1.287,0.952,0.421,0.736,0.699,�k�k��,5.8,�L
2019/06/10,04:30,0.716,1.019,0.716,1.290,0.954,0.422,0.735,0.700,�k�k��,6.3,�L
2019/06/10,04:40,0.718,1.021,0.716,1.289,0.949,0.422,0.734,0.701,�k�k��,6.5,�L
2019/06/10,04:50,0.718,1.021,0.716,1.288,0.951,0.423,0.734,0.700,�k�k��,6.0,�L
2019/06/10,05:00,0.716,1.020,0.715,1.285,0.950,0.421,0.735,0.699,�k,5.8,�L
2019/06/10,05:10,0.718,1.018,0.715,1.282,0.948,0.422,0.735,0.699,�k,5.2,�L
2019/06/10,05:20,0.716,1.018,0.714,1.283,0.947,0.423,0.734,0.699,�k,6.5,�L
2019/06/10,05:30,0.717,1.016,0.713,1.278,0.944,0.421,0.732,0.697,�k�k��,7.0,�L
2019/06/10,05:40,0.716,1.017,0.711,1.279,0.942,0.422,0.731,0.697,�k�k��,5.6,�L
2019/06/10,05:50,0.715,1.013,0.710,1.274,0.938,0.419,0.731,0.697,�k�k��,6.5,�L
2019/06/10,06:00,0.717,1.016,0.713,1.276,0.942,0.421,0.732,0.696,�k�k��,6.3,�L
2019/06/10,06:10,0.714,1.016,0.713,1.278,0.944,0.422,0.733,0.698,�k�k��,7.4,�L
2019/06/10,06:20,0.714,1.015,0.714,1.281,0.946,0.422,0.732,0.697,�k�k��,7.5,�L
2019/06/10,06:30,0.714,1.018,0.714,1.281,0.945,0.422,0.733,0.699,�k�k��,7.0,�L
2019/06/10,06:40,0.714,1.018,0.715,1.284,0.946,0.422,0.733,0.698,�k�k��,7.0,�L
2019/06/10,06:50,0.715,1.020,0.715,1.284,0.946,0.422,0.733,0.698,�k�k��,7.9,�L
2019/06/10,07:00,0.714,1.018,0.715,1.286,0.946,0.421,0.732,0.699,�k�k��,7.7,�L
2019/06/10,07:10,0.716,1.018,0.712,1.284,0.947,0.421,0.732,0.698,�k�k��,7.1,�L
2019/06/10,07:20,0.717,1.018,0.713,1.284,0.946,0.421,0.733,0.698,�k�k��,8.3,�L
2019/06/10,07:30,0.717,1.019,0.713,1.287,0.948,0.421,0.733,0.698,�k�k��,7.9,�L
2019/06/10,07:40,0.717,1.018,0.714,1.285,0.948,0.420,0.732,0.697,�k�k��,7.4,�L
2019/06/10,07:50,0.715,1.016,0.713,1.282,0.943,0.419,0.732,0.697,�k�k��,7.6,�L
2019/06/10,08:00,0.714,1.014,0.711,1.280,0.943,0.422,0.731,0.698,�k�k��,8.3,�L
2019/06/10,08:10,0.713,1.014,0.711,1.278,0.942,0.420,0.731,0.697,�k�k��,7.9,�L
2019/06/10,08:20,0.714,1.015,0.711,1.280,0.941,0.421,0.731,0.696,�k�k��,7.4,�L
2019/06/10,08:30,0.716,1.014,0.712,1.281,0.943,0.421,0.732,0.698,�k�k��,6.2,�L
2019/06/10,08:40,0.714,1.017,0.713,1.280,0.944,0.422,0.731,0.697,�k�k��,6.5,�L
2019/06/10,08:50,0.716,1.017,0.713,1.286,0.944,0.420,0.732,0.698,�k�k��,7.7,�L
2019/06/10,09:00,0.715,1.018,0.713,1.286,0.947,0.421,0.731,0.696,�k�k��,7.4,�L
2019/06/10,09:10,0.714,1.016,0.714,1.286,0.945,0.421,0.732,0.699,�k�k��,7.0,�L
2019/06/10,09:20,0.716,1.020,0.712,1.286,0.945,0.421,0.734,0.700,�k�k��,7.5,�L
2019/06/10,09:30,0.716,1.021,0.714,1.285,0.945,0.422,0.732,0.697,�k�k��,7.4,�L
2019/06/10,09:40,0.716,1.022,0.712,1.286,0.944,0.421,0.733,0.698,�k�k��,7.6,�L
2019/06/10,09:50,0.716,1.018,0.712,1.285,0.944,0.421,0.734,0.697,�k�k��,7.6,�L
2019/06/10,10:00,0.716,1.020,0.712,1.285,0.943,0.421,0.733,0.697,�k�k��,7.6,�L
2019/06/10,10:10,0.713,1.011,0.709,1.277,0.938,0.421,0.731,0.699,�k�k��,7.7,�L
2019/06/10,10:20,0.712,1.009,0.709,1.276,0.934,0.420,0.730,0.698,�k�k��,6.5,�L
2019/06/10,10:30,0.709,1.008,0.708,1.273,0.934,0.420,0.730,0.695,�k�k��,7.3,�L
2019/06/10,10:40,0.708,1.007,0.710,1.272,0.933,0.419,0.729,0.695,�k�k��,9.2,�L
2019/06/10,10:50,0.708,1.001,0.706,1.269,0.932,0.418,0.730,0.696,�k�k��,8.6,�L
2019/06/10,11:00,0.708,1.002,0.707,1.267,0.932,0.416,0.728,0.694,�k,7.2,�L
2019/06/10,11:10,0.708,1.008,0.711,1.275,0.934,0.419,0.731,0.693,�k�k��,7.7,�L
2019/06/10,11:20,0.710,1.006,0.709,1.271,0.934,0.419,0.731,0.695,�k�k��,8.9,�L
2019/06/10,11:30,0.709,1.008,0.709,1.274,0.934,0.418,0.730,0.696,�k�k��,7.8,��
2019/06/10,11:40,0.711,1.014,0.711,1.276,0.935,0.419,0.731,0.696,�k�k��,7.6,��
2019/06/10,11:50,0.713,1.012,0.711,1.279,0.936,0.419,0.734,0.695,�k,7.7,��
2019/06/10,12:00,0.715,1.014,0.711,1.281,0.940,0.420,0.732,0.696,�k,9.6,��
2019/06/10,12:10,0.714,1.018,0.710,1.284,0.939,0.421,0.733,0.695,�k,7.9,��
2019/06/10,12:20,0.714,1.017,0.712,1.281,0.937,0.420,0.732,0.697,�k,6.4,��
2019/06/10,12:30,0.714,1.017,0.712,1.283,0.941,0.419,0.734,0.699,�k,8.0,��
2019/06/10,12:40,0.713,1.017,0.714,1.287,0.943,0.419,0.734,0.697,�k,7.0,��
2019/06/10,12:50,0.715,1.017,0.714,1.287,0.941,0.420,0.735,0.699,�k,6.8,�L
2019/06/10,13:00,0.715,1.018,0.715,1.289,0.944,0.419,0.736,0.701,�k,8.6,�L
2019/06/10,13:10,0.714,1.021,0.714,1.288,0.943,0.419,0.733,0.701,�k,9.0,�L
2019/06/10,13:20,0.716,1.020,0.714,1.291,0.947,0.418,0.734,0.699,�k,9.0,��
2019/06/10,13:30,0.714,1.018,0.710,1.293,0.946,0.419,0.736,0.701,�k,9.8,��
2019/06/10,13:40,0.717,1.019,0.713,1.290,0.946,0.418,0.736,0.702,�k,9.9,��
2019/06/10,13:50,0.715,1.021,0.712,1.293,0.947,0.419,0.736,0.701,�k,9.9,��
2019/06/10,14:00,0.717,1.021,0.712,1.294,0.949,0.418,0.737,0.702,�k,9.8,��
2019/06/10,14:10,0.715,1.021,0.713,1.295,0.940,0.419,0.737,0.699,�k,9.4,��
2019/06/10,14:20,0.717,1.021,0.714,1.293,0.938,0.421,0.737,0.700,�k,9.4,�L
2019/06/10,14:30,0.717,1.022,0.714,1.295,0.946,0.419,0.738,0.701,�k,9.2,�L
2019/06/10,14:40,0.717,1.025,0.713,1.294,0.949,0.419,0.737,0.700,�k,8.7,�L
2019/06/10,14:50,0.719,1.022,0.715,1.294,0.949,0.419,0.737,0.700,�k,8.0,�L
2019/06/10,15:00,0.718,1.023,0.714,1.294,0.949,0.420,0.738,0.700,�k,8.4,�L
2019/06/10,15:10,0.717,1.024,0.716,1.298,0.946,0.420,0.735,0.698,�k,7.7,�L
2019/06/10,15:20,0.718,1.023,0.717,1.296,0.941,0.421,0.734,0.700,�k,8.4,�L
2019/06/10,15:30,0.718,1.020,0.714,1.294,0.942,0.421,0.734,0.698,�k,8.6,�L
2019/06/10,15:40,0.719,1.016,0.714,1.292,0.939,0.421,0.732,0.698,�k,8.2,�L
2019/06/10,15:50,0.717,1.017,0.713,1.287,0.935,0.420,0.733,0.697,�k�k��,8.7,�L
2019/06/10,16:00,0.716,1.015,0.712,1.288,0.939,0.421,0.734,0.696,�k,8.0,�L
2019/06/10,16:10,0.717,1.017,0.713,1.289,0.938,0.422,0.733,0.696,�k,8.3,�L
2019/06/10,16:20,0.716,1.014,0.714,1.288,0.938,0.421,0.734,0.695,�k,7.6,�L
2019/06/10,16:30,0.717,1.017,0.710,1.287,0.938,0.422,0.733,0.698,�k�k��,7.3,�L
2019/06/10,16:40,0.717,1.015,0.714,1.285,0.939,0.423,0.731,0.697,�k�k��,8.6,�L
2019/06/10,16:50,0.716,1.016,0.714,1.288,0.937,0.422,0.733,0.698,�k�k��,8.7,�L
2019/06/10,17:00,0.718,1.017,0.713,1.287,0.940,0.422,0.732,0.698,�k�k��,8.8,�L
2019/06/10,17:10,0.716,1.018,0.713,1.288,0.939,0.422,0.733,0.699,�k�k��,8.8,�L
2019/06/10,17:20,0.719,1.018,0.712,1.286,0.940,0.421,0.732,0.698,�k�k��,8.6,�L
2019/06/10,17:30,0.720,1.019,0.713,1.286,0.940,0.423,0.733,0.698,�k�k��,8.5,�L
2019/06/10,17:40,0.718,1.015,0.714,1.286,0.938,0.423,0.733,0.699,�k�k��,8.0,�L
2019/06/10,17:50,0.718,1.016,0.713,1.285,0.937,0.422,0.730,0.699,�k,7.3,�L
2019/06/10,18:00,0.719,1.014,0.714,1.288,0.938,0.423,0.731,0.699,�k,8.2,�L
2019/06/10,18:10,0.718,1.017,0.713,1.285,0.939,0.423,0.732,0.697,�k�k��,9.6,�L
2019/06/10,18:20,0.720,1.017,0.713,1.286,0.938,0.422,0.733,0.700,�k�k��,9.4,�L
2019/06/10,18:30,0.719,1.015,0.711,1.288,0.940,0.421,0.733,0.697,�k�k��,9.3,�L
2019/06/10,18:40,0.717,1.017,0.713,1.287,0.939,0.422,0.730,0.697,�k�k��,9.0,�L
2019/06/10,18:50,0.715,1.014,0.711,1.282,0.936,0.421,0.730,0.695,�k�k��,8.5,�L
2019/06/10,19:00,0.714,1.009,0.711,1.281,0.932,0.422,0.729,0.694,�k,7.7,�L
2019/06/10,19:10,0.714,1.011,0.710,1.280,0.932,0.422,0.729,0.694,�k,7.2,�L
2019/06/10,19:20,0.713,1.010,0.710,1.278,0.933,0.420,0.729,0.695,�k,6.3,�L
2019/06/10,19:30,0.715,1.010,0.711,1.279,0.933,0.421,0.730,0.696,�k,6.0,�L
2019/06/10,19:40,0.716,1.012,0.712,1.279,0.932,0.423,0.729,0.695,�k,6.7,�L
2019/06/10,19:50,0.715,1.013,0.711,1.280,0.932,0.423,0.729,0.697,�k�k��,7.1,�L
2019/06/10,20:00,0.717,1.013,0.712,1.280,0.933,0.422,0.731,0.696,�k,7.1,�L
2019/06/10,20:10,0.716,1.015,0.713,1.282,0.935,0.421,0.728,0.697,�k�k��,7.1,�L
2019/06/10,20:20,0.716,1.013,0.711,1.279,0.932,0.423,0.730,0.694,�k,7.9,�L
2019/06/10,20:30,0.717,1.015,0.712,1.279,0.934,0.422,0.729,0.697,�k,8.0,�L
2019/06/10,20:40,0.717,1.013,0.711,1.279,0.933,0.421,0.729,0.696,�k,7.5,�L
2019/06/10,20:50,0.715,1.013,0.710,1.280,0.930,0.422,0.729,0.694,�k,7.7,�L
2019/06/10,21:00,0.714,1.012,0.710,1.278,0.932,0.422,0.728,0.696,�k,6.9,�L
2019/06/10,21:10,0.716,1.010,0.711,1.282,0.934,0.423,0.729,0.696,�k,7.3,�L
2019/06/10,21:20,0.716,1.015,0.711,1.279,0.932,0.421,0.729,0.697,�k,7.5,�L
2019/06/10,21:30,0.712,1.014,0.710,1.281,0.932,0.422,0.728,0.696,�k�k��,7.6,�L
2019/06/10,21:40,0.715,1.014,0.711,1.282,0.934,0.421,0.729,0.696,�k,7.6,�L
2019/06/10,21:50,0.716,1.013,0.709,1.280,0.932,0.422,0.730,0.695,�k,9.2,�L
2019/06/10,22:00,0.716,1.011,0.710,1.280,0.932,0.421,0.729,0.696,�k,8.6,�L
2019/06/10,22:10,0.714,1.011,0.709,1.278,0.929,0.422,0.729,0.696,�k,8.4,�L
2019/06/10,22:20,0.716,1.011,0.709,1.281,0.933,0.422,0.728,0.696,�k,8.1,�L
2019/06/10,22:30,0.714,1.014,0.711,1.279,0.931,0.420,0.732,0.697,�k,9.6,�L
2019/06/10,22:40,0.713,1.014,0.710,1.280,0.932,0.420,0.728,0.694,�k,8.9,�L
2019/06/10,22:50,0.715,1.012,0.710,1.279,0.931,0.422,0.728,0.695,�k,8.5,�L
2019/06/10,23:00,0.716,1.013,0.710,1.279,0.930,0.423,0.729,0.695,�k,7.9,�L
2019/06/10,23:10,0.714,1.011,0.710,1.278,0.930,0.421,0.729,0.696,�k,8.3,�L
2019/06/10,23:20,0.710,1.005,0.707,1.273,0.925,0.420,0.728,0.695,�k,7.5,�L
2019/06/10,23:30,0.710,1.006,0.707,1.274,0.925,0.421,0.727,0.693,�k,7.2,�L
2019/06/10,23:40,0.713,1.007,0.708,1.274,0.923,0.420,0.726,0.694,�k,8.0,�L
2019/06/10,23:50,0.711,1.007,0.708,1.272,0.927,0.421,0.726,0.693,�k,8.7,�L
